Temperature
14 14 15 15 13 11 13 14 16 17 17 18 18 17 16 16 17 16 15 16 16 16 16 16 16 17 17 17 17 17 17 17 17 17 17 17 16 16 16 16 16 16 16 16 16 16 16 16 16
14 14 15 14 11 12 13 14 16 16 18 18 18 17 16 15 15 15 15 15 16 16 16 16 16 16 16 16 16 17 17 16 16 16 16 16 16 16 16 16 16 16 16 16 16 16 16 16 15
14 14 14 11 12 12 14 15 15 16 18 18 17 16 15 15 15 15 15 15 16 16 16 16 16 16 16 16 16 16 16 16 16 16 16 16 16 16 16 16 16 16 16 16 16 16 16 15 15
13 14 13 11 13 13 15 15 15 16 17 17 16 14 14 14 15 15 15 15 15 16 16 16 16 16 16 16 16 16 16 16 16 16 16 16 16 16 16 16 16 16 16 16 16 16 15 15 15
13 13 11 11 13 13 14 15 16 15 15 16 15 13 13 14 14 15 15 15 15 15 15 15 16 15 16 16 16 16 16 16 16 16 16 16 16 16 16 16 16 15 16 16 15 15 15 15 15
13 11 10 11 13 14 14 15 16 15 15 15 14 13 13 13 14 14 14 15 15 15 15 15 15 15 15 15 15 15 15 15 15 15 15 15 15 15 15 15 15 15 15 15 15 15 15 15 15
12 9 10 11 12 13 14 15 15 14 14 15 14 12 12 13 14 14 14 14 15 15 15 15 15 15 15 15 15 15 15 15 15 15 15 15 15 15 15 15 15 15 15 15 15 15 15 15 15
12 10 11 11 12 13 14 15 15 15 14 15 15 13 12 13 13 14 14 14 14 14 14 14 14 14 14 14 14 15 15 15 15 15 15 15 15 15 15 15 15 15 15 15 15 15 15 15 15
12 9 10 12 12 13 13 13 14 14 14 14 14 14 14 13 13 13 14 14 14 14 14 14 14 14 14 14 14 14 14 14 14 14 15 15 15 15 15 15 15 15 14 14 15 15 14 14 15
11 9 11 12 12 12 13 13 13 13 13 12 13 13 13 13 13 13 13 13 13 13 13 13 14 14 14 14 14 14 14 14 14 14 14 14 14 14 14 14 14 14 14 14 14 14 14 14 14
10 10 11 12 13 13 13 13 13 13 11 12 12 13 13 13 13 13 13 13 13 13 13 13 13 13 13 13 13 14 14 14 14 14 14 14 14 14 14 14 14 14 14 14 14 14 14 14 14
10 11 12 12 13 13 12 12 12 12 12 13 13 13 13 13 13 13 13 12 13 13 13 13 13 13 13 13 13 13 13 13 13 13 13 13 13 13 13 14 14 14 14 14 14 14 14 14 14
10 10 12 12 12 12 12 11 11 11 13 13 13 13 13 13 12 12 12 12 12 12 12 12 12 13 13 13 13 13 13 13 13 13 13 13 13 13 13 13 13 13 13 13 13 13 13 13 13
10 10 11 12 12 12 11 11 11 11 12 12 12 12 12 12 12 12 12 12 12 12 12 12 12 12 12 12 13 13 13 13 12 12 12 12 12 12 12 13 13 13 13 13 13 13 13 13 13
11 10 10 11 11 11 11 10 10 12 12 12 12 12 12 12 12 12 12 12 12 12 12 12 12 12 12 12 12 12 12 12 12 12 12 12 12 12 12 12 12 12 12 12 12 12 12 13 13
10 9 9 11 11 11 11 10 11 12 11 11 11 11 11 11 11 11 11 11 11 11 11 11 11 11 12 12 12 12 12 12 12 12 12 12 12 12 12 12 12 12 12 12 12 12 12 12 12
8 8 9 10 11 10 10 9 10 11 11 11 11 11 11 11 11 11 11 11 11 11 11 11 11 11 11 11 11 11 11 11 11 11 11 11 11 11 11 11 11 12 12 12 12 12 12 12 12
9 9 9 9 10 10 9 9 10 11 10 10 11 11 11 11 11 11 11 11 11 11 11 11 11 11 11 11 11 11 11 11 11 11 11 11 11 11 11 11 11 11 11 11 11 11 11 11 11
9 9 9 9 10 10 9 9 9 10 10 9 10 10 11 11 11 10 10 11 11 11 11 11 11 11 11 11 11 11 11 10 10 10 10 10 10 10 10 10 10 10 10 10 10 10 10 11 11
9 9 8 9 9 9 8 8 9 9 9 10 10 10 10 10 10 10 10 10 10 10 10 10 10 10 10 10 10 10 10 10 10 10 10 10 10 10 10 10 10 10 10 10 10 10 10 10 10
8 8 8 8 8 9 8 8 9 9 10 10 10 11 11 11 11 10 10 10 10 10 10 10 10 10 10 10 10 9 9 9 9 9 9 9 9 9 9 9 9 9 9 9 9 9 9 9 9
8 9 9 8 7 7 8 7 8 8 8 8 9 10 10 10 10 10 10 10 10 10 10 10 10 9 9 9 9 9 9 9 9 9 9 9 9 9 9 9 9 9 8 8 8 8 8 8 9
8 8 8 8 7 7 7 7 8 8 8 8 8 9 10 10 10 10 11 10 10 10 10 9 9 9 9 9 8 8 8 8 8 8 8 8 8 8 8 8 8 8 8 8 8 8 8 8 8
8 8 7 6 6 7 8 7 7 7 8 9 8 9 10 10 10 10 10 10 10 10 9 9 9 9 8 8 8 8 8 8 8 8 8 8 8 8 8 7 8 7 7 7 7 7 7 7 7
7 6 6 6 6 7 7 7 7 8 9 9 9 9 10 10 10 10 10 10 9 9 9 9 9 8 8 8 8 8 7 7 7 7 7 7 7 7 7 7 7 7 7 7 7 7 7 7 7
7 6 6 7 7 6 7 7 8 8 9 9 10 10 10 10 10 10 10 9 9 9 9 8 8 8 8 7 7 7 7 7 7 7 6 6 6 6 6 6 6 6 6 6 6 6 6 6 6
7 6 6 5 5 6 6 6 7 9 8 8 9 9 9 10 10 10 9 9 9 9 8 8 8 7 7 7 7 7 6 6 6 6 6 6 6 6 5 5 6 6 6 6 6 6 6 6 6
7 6 5 5 6 7 7 7 7 8 8 8 7 8 9 9 9 9 9 9 9 8 8 8 7 7 7 7 6 6 6 6 6 5 5 5 5 5 5 5 5 5 5 5 5 5 5 5 5
6 6 5 4 5 6 6 7 8 8 8 7 7 8 9 9 9 9 9 8 8 8 8 7 7 7 6 6 6 6 6 5 5 5 5 5 5 4 4 4 4 4 4 4 4 4 4 4 5
6 6 5 5 5 4 4 6 8 7 7 8 8 9 9 9 9 9 8 8 8 8 7 7 7 6 6 6 6 5 5 5 5 5 4 4 4 4 4 4 4 4 4 4 4 4 4 4 4
Wind_Speed
9 8 2 3 4 2 5 5 3 3 2 2 1 5 7 5 4 5 2 4 7 8 10 12 11 11 10 10 9 8 8 7 7 6 6 6 6 6 6 6 6 6 6 6 7 7 7 7 7
5 3 4 4 4 3 5 4 4 4 5 3 3 4 6 5 3 6 2 4 8 9 10 11 11 10 10 9 8 7 7 6 6 5 5 5 5 5 5 4 4 5 5 6 6 5 6 6 6
4 1 3 3 4 7 6 5 6 3 1 2 3 5 5 4 3 3 3 6 8 8 10 11 11 10 10 9 8 7 6 5 5 4 4 4 4 4 4 4 4 4 4 5 5 4 5 5 5
3 3 3 3 5 5 5 4 5 3 2 3 4 5 3 2 2 4 5 7 9 7 9 11 11 10 9 8 7 7 6 5 4 4 3 3 3 3 3 3 3 3 4 4 4 4 5 5 5
3 3 2 2 5 3 3 3 2 2 1 2 4 5 3 4 5 7 7 9 10 7 8 10 11 10 9 8 7 6 5 5 4 3 3 2 2 3 3 3 3 3 4 4 5 5 5 5 5
3 3 3 4 4 2 2 3 1 2 2 2 4 5 3 1 5 6 7 9 8 8 8 9 10 9 8 7 6 5 5 4 3 2 2 2 2 1 2 3 3 4 4 5 5 6 6 6 6
3 3 4 4 3 2 2 1 2 3 2 1 4 6 4 1 4 6 7 8 8 8 8 8 8 8 8 7 6 5 4 3 3 2 2 2 1 1 1 3 4 4 5 5 6 7 7 8 7
4 3 1 2 3 4 2 1 2 3 2 1 4 7 6 5 5 7 8 8 8 7 6 6 7 7 7 6 6 5 4 4 3 3 2 1 1 0 0 1 3 4 5 5 6 7 8 8 9
3 3 2 3 4 3 1 1 1 2 4 3 2 4 7 9 8 9 8 7 7 7 5 5 6 6 6 6 5 5 4 4 3 3 3 2 2 1 1 2 3 3 5 6 7 8 8 9 9
3 3 4 2 3 3 0 1 1 3 3 3 4 5 8 9 9 9 7 6 5 5 4 4 5 5 6 6 6 5 5 4 4 3 2 2 1 2 2 2 3 4 4 6 7 8 8 8 8
2 4 2 1 2 2 1 1 1 4 1 4 7 9 8 9 8 8 6 6 5 4 4 4 4 5 5 5 5 5 5 5 5 4 3 3 3 3 2 2 2 3 3 4 5 6 6 7 7
1 1 1 1 0 2 1 1 2 1 4 4 7 8 8 9 8 8 7 6 5 5 4 4 4 5 5 5 4 4 4 4 5 5 5 3 3 3 2 2 2 2 2 2 2 3 4 5 7
1 1 2 2 3 2 3 2 1 1 2 4 7 7 9 9 7 6 7 7 6 5 3 3 4 5 5 5 4 5 4 4 5 6 6 4 2 2 2 2 2 2 2 2 2 2 3 4 5
2 1 3 2 1 1 3 1 1 3 3 6 6 6 7 8 8 7 6 6 5 4 3 3 4 4 5 4 4 4 4 5 5 5 5 5 3 2 2 2 2 2 3 3 3 3 3 4 4
0 2 4 2 1 0 3 3 2 4 4 6 5 5 6 6 6 7 6 6 6 4 3 3 3 4 4 4 4 4 4 5 4 5 6 6 5 3 2 2 2 3 4 4 3 3 3 3 4
1 3 2 3 1 1 4 3 4 3 6 5 5 4 6 5 6 6 6 6 5 5 4 2 3 3 3 3 3 3 4 4 4 5 6 7 7 5 3 2 3 4 4 3 2 2 3 3 4
3 1 1 3 1 1 3 5 5 2 5 5 5 5 6 5 5 5 6 6 5 5 4 3 2 2 2 3 3 3 3 4 4 5 6 7 7 7 4 3 3 4 3 3 3 2 2 3 4
2 1 1 3 2 1 3 6 6 3 5 6 6 6 6 7 6 6 6 6 5 4 4 3 2 2 2 2 2 2 3 3 4 4 5 6 7 7 5 3 4 4 2 3 3 3 2 2 3
3 2 2 4 2 1 5 8 9 5 5 7 7 7 7 7 5 6 6 5 5 4 3 2 2 1 1 2 1 1 2 2 3 3 5 6 6 6 5 4 4 3 2 3 4 3 3 2 2
1 1 2 3 2 1 3 7 8 6 6 8 10 10 9 7 5 5 5 5 4 4 4 3 2 1 0 0 0 1 1 1 2 2 4 5 5 6 5 4 3 3 3 3 3 3 2 2 1
2 1 2 2 4 3 3 6 4 4 3 4 6 8 9 10 9 8 7 6 5 4 4 3 3 2 1 1 1 1 2 2 2 3 3 4 5 5 5 4 3 3 3 3 3 3 3 3 3
1 2 0 1 3 3 2 3 6 4 3 5 6 7 8 8 8 8 7 6 6 5 4 4 3 2 2 1 1 1 1 1 2 2 3 4 5 5 5 4 4 4 3 4 4 3 3 3 3
2 2 1 0 1 2 1 2 7 3 4 7 7 8 8 8 9 9 8 8 6 5 4 3 3 2 2 1 1 1 1 2 2 3 4 4 4 4 4 4 4 4 3 4 4 4 4 3 3
1 3 4 4 3 2 3 4 6 4 7 6 6 7 7 8 8 7 6 6 5 4 4 3 3 2 2 2 2 2 2 2 3 3 4 4 3 4 4 4 3 3 3 4 4 4 4 4 4
4 5 4 4 3 5 2 3 8 7 6 7 7 8 7 7 7 7 7 6 6 5 5 4 4 3 3 3 3 3 3 3 3 3 3 4 4 4 5 4 4 3 4 4 3 3 3 3 4
0 3 4 3 4 5 4 5 7 6 4 2 4 5 6 6 6 7 8 7 7 7 6 5 5 4 4 3 3 3 3 2 2 3 3 3 3 4 5 4 4 4 4 4 3 3 3 3 3
2 2 3 4 0 3 5 6 7 2 2 1 3 4 5 5 6 7 7 7 7 7 7 7 6 5 5 4 4 3 3 3 3 3 3 3 3 4 4 4 5 5 4 4 4 3 3 3 3
2 4 4 3 2 3 5 5 5 5 4 3 3 4 5 4 5 6 6 6 6 6 6 5 6 6 5 4 4 3 3 3 3 3 3 4 4 4 4 5 5 5 5 4 4 3 3 3 3
2 2 3 2 3 3 4 7 5 5 5 6 6 6 6 6 6 6 5 5 5 5 5 5 5 5 4 4 4 3 3 3 3 3 4 4 4 4 4 5 5 5 5 4 4 4 3 3 3
4 5 5 3 4 4 3 8 6 4 4 5 5 5 5 5 5 5 5 4 4 5 5 5 5 5 5 5 4 4 4 3 3 4 4 4 4 4 4 4 4 5 5 4 4 4 4 3 3
Wind_Direction
330 337 54 61 70 80 225 238 208 164 178 219 108 100 111 104 132 150 176 140 130 140 140 136 133 129 125 120 117 114 110 107 105 108 112 111 109 110 115 116 117 118 124 124 120 124 124 122 117
336 349 59 73 124 192 242 232 199 197 185 154 83 85 87 83 82 106 124 128 128 132 132 131 129 126 124 121 119 117 115 113 110 110 118 122 119 117 117 122 126 124 127 130 128 129 135 132 130
335 29 94 103 160 193 214 209 195 219 230 115 80 57 90 106 104 125 151 130 117 118 124 127 127 124 121 119 116 115 114 114 115 113 119 130 135 127 128 131 129 133 135 140 141 139 146 146 147
51 48 65 114 208 221 213 214 195 169 42 56 101 72 56 19 135 142 131 117 110 107 116 123 121 121 118 115 113 112 112 111 112 114 116 130 141 147 140 139 139 143 150 161 164 162 163 165 167
65 89 101 197 229 241 231 248 192 155 123 65 97 99 61 360 86 106 105 107 109 105 109 118 114 114 114 110 107 109 110 109 107 103 102 123 145 160 163 159 164 172 177 185 188 186 187 188 191
67 85 131 208 222 224 244 262 151 118 111 92 98 107 103 43 98 103 100 103 106 106 98 101 106 105 106 107 104 103 102 98 102 96 89 92 101 142 188 183 193 192 196 202 206 204 206 208 211
119 118 176 198 203 223 242 267 138 130 118 154 131 116 127 140 124 115 101 99 96 94 90 86 89 91 93 92 94 94 89 87 92 81 82 91 90 84 180 200 207 206 210 213 217 216 215 216 220
133 119 171 203 197 227 263 348 132 133 144 140 117 135 162 180 142 112 97 89 87 82 82 78 77 76 75 78 83 74 69 72 75 63 62 65 56 46 267 233 224 220 222 225 228 226 222 223 225
99 88 193 212 201 231 294 49 24 54 99 56 80 148 157 145 127 110 98 82 78 71 65 67 63 59 59 62 60 56 53 47 38 34 38 34 9 328 261 258 250 237 236 235 236 235 230 229 230
93 149 214 232 206 195 345 91 132 69 59 65 69 88 120 127 123 120 115 107 95 80 63 60 62 54 53 53 45 38 35 26 17 11 19 19 3 336 309 276 262 257 254 251 245 242 236 232 232
126 180 219 278 228 166 112 43 48 120 134 181 154 144 136 128 124 124 123 121 118 104 75 51 61 55 51 46 44 37 32 25 16 7 2 1 359 348 341 323 292 279 270 270 265 251 240 233 230
112 289 237 280 13 90 123 91 34 111 210 187 153 145 138 133 134 136 131 126 115 100 78 55 56 56 49 48 42 44 38 29 19 7 9 15 12 3 350 338 313 293 280 278 271 256 248 241 237
126 276 323 346 49 77 79 72 85 300 199 133 123 127 139 137 135 134 131 125 114 102 80 56 53 53 46 43 35 37 32 25 17 12 14 18 21 357 348 341 341 325 299 273 261 255 260 253 248
184 252 311 330 9 34 96 357 65 251 153 131 134 142 143 140 140 132 129 126 124 117 98 68 60 53 48 45 37 30 25 21 19 13 7 14 11 3 354 342 344 332 316 290 259 253 253 254 251
88 27 342 321 182 186 87 351 229 219 137 139 152 156 150 150 145 145 149 144 140 131 115 93 82 57 49 39 31 28 19 22 20 8 3 8 7 1 2 345 332 324 317 308 295 277 265 261 259
36 53 351 299 144 130 105 256 256 199 145 165 175 174 164 162 158 152 148 142 141 132 124 107 85 68 54 41 25 25 22 26 17 6 3 3 3 360 2 348 322 322 324 318 287 270 269 267 265
36 84 259 299 268 138 147 234 251 197 165 186 190 188 171 164 160 159 155 150 146 143 137 118 95 79 57 44 29 25 30 32 16 9 5 1 0 359 357 342 327 328 331 315 292 284 268 270 275
213 212 253 270 283 168 214 250 258 219 195 206 202 191 176 173 183 171 159 153 145 142 134 125 109 84 59 45 31 26 28 24 13 6 358 359 359 356 357 345 336 342 325 315 306 290 284 267 276
183 178 249 267 283 251 236 255 264 240 209 216 212 196 191 191 184 166 158 154 143 139 135 137 128 76 56 48 35 18 355 345 348 353 359 357 354 354 357 340 339 342 319 308 307 292 295 289 295
96 139 293 309 330 282 273 276 266 242 215 209 203 199 194 185 174 168 164 161 161 164 163 164 175 179 90 90 191 206 265 297 306 335 355 354 354 353 348 339 323 323 314 322 320 303 292 289 296
14 192 233 279 340 5 359 311 283 270 228 207 200 196 191 185 184 184 180 179 174 182 184 183 193 193 209 178 74 34 19 351 342 340 337 338 342 343 338 333 328 318 306 299 299 300 275 273 273
298 296 250 80 39 314 46 295 285 268 261 226 211 197 196 191 187 188 185 184 186 193 190 188 190 194 207 167 140 159 220 272 280 300 306 318 329 330 330 327 324 312 299 292 289 287 274 261 265
243 304 311 78 99 336 307 200 283 281 250 244 222 207 204 197 191 191 191 190 190 187 184 192 192 201 205 191 188 200 247 260 284 302 310 318 321 326 323 321 320 312 303 296 290 287 276 262 253
324 22 32 47 72 299 238 185 275 242 230 243 224 212 204 195 191 190 187 176 179 180 181 186 187 206 212 209 214 209 235 265 291 306 312 315 316 322 326 323 319 313 306 296 291 282 277 268 258
50 69 29 2 1 255 258 206 251 258 245 225 213 209 202 191 184 181 181 183 188 189 191 190 190 213 221 220 230 232 235 243 257 280 295 306 314 316 313 319 313 311 304 299 298 289 283 276 264
246 130 152 206 242 285 306 237 256 279 284 229 185 178 182 188 190 190 194 194 198 200 195 193 199 216 217 218 231 238 236 235 252 264 273 284 292 297 305 311 310 307 303 302 298 285 281 279 268
144 173 172 141 228 275 277 285 299 284 354 62 131 150 179 195 201 203 203 200 201 202 203 203 206 216 215 215 217 226 233 235 252 265 269 277 286 297 310 314 314 307 303 301 296 281 278 278 268
171 155 104 127 188 267 286 274 256 263 253 234 199 198 210 210 214 217 212 208 209 209 212 209 210 215 216 213 216 226 232 237 248 259 267 274 284 294 303 309 310 310 310 308 299 287 282 277 276
167 160 145 150 177 190 266 270 233 234 225 213 218 214 210 214 219 221 223 220 216 215 213 214 217 220 222 219 216 222 233 239 249 256 264 269 277 285 294 301 305 306 306 304 299 292 288 280 281
197 193 161 172 234 205 223 267 274 244 229 209 220 226 227 224 222 223 225 223 222 224 223 223 223 222 222 217 213 220 227 233 247 258 265 269 274 279 283 290 296 298 299 299 294 290 292 286 284
Height
1509 1510 1512 1514 1518 1526 1523 1517 1510 1509 1509 1508 1508 1508 1509 1514 1517 1524 1522 1521 1523 1525 1527 1529 1531 1532 1533 1534 1535 1536 1537 1537 1538 1539 1539 1540 1540 1540 1541 1541 1542 1542 1543 1543 1543 1543 1544 1544 1544
1509 1510 1513 1513 1521 1528 1523 1513 1509 1507 1506 1507 1508 1509 1510 1514 1516 1518 1519 1521 1523 1525 1527 1529 1530 1531 1533 1534 1535 1535 1536 1537 1538 1538 1539 1539 1540 1540 1540 1541 1541 1542 1542 1543 1543 1543 1544 1544 1544
1508 1509 1512 1514 1520 1522 1515 1508 1507 1505 1505 1506 1508 1510 1512 1515 1516 1517 1519 1521 1523 1525 1527 1528 1530 1531 1532 1533 1534 1535 1536 1536 1537 1537 1538 1539 1539 1540 1540 1540 1541 1541 1542 1542 1543 1543 1543 1544 1544
1508 1510 1511 1516 1515 1511 1507 1505 1504 1504 1505 1506 1507 1511 1514 1516 1516 1517 1519 1521 1523 1525 1527 1528 1529 1530 1531 1532 1533 1534 1535 1535 1536 1536 1537 1538 1538 1539 1539 1540 1540 1540 1541 1541 1542 1542 1543 1543 1544
1507 1509 1514 1517 1513 1508 1505 1503 1503 1503 1505 1506 1507 1511 1515 1516 1517 1518 1520 1522 1523 1524 1526 1527 1528 1530 1530 1531 1532 1533 1534 1534 1535 1535 1536 1536 1537 1538 1538 1538 1539 1539 1540 1540 1541 1541 1542 1542 1543
1508 1508 1517 1518 1511 1506 1505 1503 1503 1504 1505 1506 1508 1511 1516 1517 1518 1519 1520 1521 1523 1524 1525 1527 1528 1529 1530 1530 1531 1532 1532 1533 1534 1534 1535 1535 1536 1536 1537 1537 1538 1538 1539 1539 1540 1540 1541 1541 1542
1508 1511 1514 1513 1511 1507 1504 1503 1503 1504 1505 1507 1507 1511 1515 1517 1518 1519 1520 1522 1523 1524 1525 1526 1527 1528 1529 1529 1530 1531 1531 1532 1532 1533 1533 1534 1534 1535 1535 1535 1536 1536 1537 1537 1538 1538 1539 1540 1540
1506 1510 1511 1512 1510 1507 1504 1503 1503 1504 1505 1506 1507 1509 1513 1516 1517 1519 1520 1521 1522 1523 1524 1525 1526 1527 1528 1528 1529 1529 1530 1530 1531 1531 1532 1532 1532 1533 1533 1534 1534 1534 1535 1535 1536 1537 1537 1538 1539
1506 1512 1513 1510 1508 1506 1504 1503 1503 1503 1504 1505 1506 1508 1510 1514 1516 1518 1520 1521 1521 1522 1523 1524 1525 1526 1526 1527 1527 1528 1528 1529 1529 1529 1530 1530 1530 1531 1531 1531 1532 1532 1533 1533 1534 1534 1535 1536 1536
1506 1513 1509 1506 1505 1504 1504 1504 1504 1504 1504 1505 1506 1508 1511 1513 1515 1517 1518 1519 1521 1522 1523 1523 1524 1524 1525 1525 1526 1526 1526 1527 1527 1528 1528 1528 1528 1528 1529 1529 1529 1530 1530 1531 1531 1532 1532 1533 1534
1506 1509 1506 1504 1503 1503 1503 1504 1504 1504 1506 1505 1505 1508 1510 1512 1514 1516 1518 1519 1520 1521 1522 1522 1523 1523 1524 1524 1524 1524 1524 1525 1525 1525 1525 1526 1526 1526 1526 1526 1527 1527 1528 1528 1528 1529 1529 1530 1531
1507 1506 1504 1503 1502 1502 1503 1503 1504 1504 1504 1504 1505 1507 1509 1511 1513 1515 1516 1518 1519 1520 1521 1522 1522 1522 1522 1522 1522 1522 1522 1523 1523 1523 1523 1523 1523 1523 1523 1524 1524 1524 1525 1525 1525 1526 1526 1527 1527
1507 1506 1505 1503 1502 1502 1502 1503 1504 1503 1504 1505 1506 1508 1509 1510 1512 1514 1516 1517 1518 1519 1520 1521 1521 1521 1521 1521 1521 1521 1521 1521 1521 1521 1521 1521 1521 1520 1521 1521 1521 1521 1521 1522 1522 1522 1523 1523 1524
1506 1506 1505 1504 1503 1503 1503 1504 1504 1503 1504 1505 1506 1507 1509 1510 1511 1513 1515 1516 1517 1518 1519 1520 1520 1520 1520 1520 1519 1519 1519 1519 1519 1519 1519 1518 1518 1518 1518 1518 1518 1518 1518 1518 1518 1519 1519 1519 1520
1506 1507 1506 1504 1503 1504 1504 1506 1505 1503 1504 1505 1506 1507 1509 1510 1511 1512 1514 1515 1516 1517 1518 1519 1519 1519 1518 1518 1518 1517 1517 1517 1517 1517 1516 1516 1515 1515 1515 1514 1514 1514 1514 1514 1515 1515 1515 1516 1516
1508 1510 1512 1506 1504 1504 1508 1511 1504 1503 1503 1504 1505 1506 1508 1509 1510 1512 1513 1514 1515 1516 1517 1517 1517 1517 1517 1516 1516 1516 1515 1515 1515 1515 1514 1514 1513 1512 1511 1511 1511 1511 1511 1511 1511 1511 1511 1511 1512
1512 1515 1513 1508 1504 1504 1507 1508 1503 1503 1503 1503 1504 1505 1506 1508 1509 1511 1512 1513 1514 1515 1515 1515 1516 1515 1515 1515 1514 1514 1513 1513 1513 1512 1512 1511 1510 1509 1509 1508 1508 1507 1507 1507 1507 1507 1507 1507 1507
1514 1513 1512 1511 1506 1505 1507 1506 1501 1502 1502 1502 1503 1504 1505 1506 1508 1509 1511 1512 1513 1513 1514 1514 1514 1514 1513 1513 1513 1512 1511 1511 1510 1510 1509 1508 1507 1506 1506 1505 1504 1504 1503 1503 1503 1503 1503 1503 1503
1510 1511 1513 1510 1506 1506 1506 1504 1500 1499 1500 1500 1500 1501 1502 1504 1507 1508 1509 1510 1511 1512 1512 1512 1512 1512 1512 1511 1510 1510 1509 1508 1507 1507 1506 1505 1504 1503 1502 1502 1501 1500 1500 1499 1499 1499 1499 1499 1500
1509 1512 1512 1509 1506 1507 1507 1504 1498 1496 1496 1496 1497 1498 1500 1502 1504 1506 1508 1509 1509 1510 1510 1510 1510 1510 1510 1509 1508 1508 1507 1506 1505 1504 1503 1502 1501 1500 1499 1498 1497 1497 1497 1496 1496 1495 1495 1495 1496
1511 1513 1512 1511 1509 1507 1508 1505 1499 1495 1494 1494 1494 1495 1497 1499 1501 1504 1505 1506 1507 1508 1508 1508 1508 1508 1508 1507 1506 1506 1505 1504 1503 1501 1500 1499 1498 1497 1496 1495 1494 1493 1493 1492 1492 1492 1492 1492 1492
1513 1510 1510 1510 1515 1517 1513 1517 1501 1496 1494 1493 1493 1493 1495 1497 1499 1501 1503 1504 1505 1506 1506 1506 1506 1506 1505 1505 1504 1503 1502 1501 1500 1499 1497 1496 1495 1493 1492 1491 1490 1490 1489 1489 1488 1488 1488 1488 1488
1512 1510 1511 1512 1515 1519 1516 1518 1506 1497 1495 1491 1490 1491 1492 1494 1496 1498 1500 1502 1503 1504 1504 1504 1504 1504 1503 1503 1502 1501 1499 1498 1497 1496 1494 1493 1491 1490 1488 1487 1486 1486 1485 1485 1485 1484 1484 1484 1484
1512 1513 1513 1517 1520 1521 1513 1517 1508 1499 1491 1488 1487 1488 1490 1492 1494 1496 1498 1499 1500 1501 1501 1502 1501 1501 1501 1500 1499 1498 1497 1495 1494 1492 1491 1489 1488 1486 1485 1484 1483 1482 1481 1481 1480 1480 1480 1479 1479
1514 1521 1528 1525 1529 1520 1512 1513 1504 1489 1486 1484 1484 1486 1487 1490 1492 1494 1495 1496 1497 1498 1499 1499 1498 1498 1498 1497 1496 1495 1494 1492 1491 1489 1487 1486 1484 1482 1481 1480 1479 1478 1477 1477 1476 1475 1475 1475 1474
1517 1520 1528 1526 1526 1522 1513 1510 1497 1486 1483 1482 1482 1484 1486 1488 1490 1491 1493 1494 1495 1495 1496 1496 1496 1495 1495 1494 1493 1492 1490 1489 1488 1486 1484 1482 1481 1479 1478 1477 1475 1474 1473 1473 1472 1471 1470 1470 1469
1517 1521 1520 1527 1528 1527 1516 1506 1493 1485 1484 1483 1483 1484 1485 1486 1488 1490 1491 1492 1492 1493 1493 1493 1493 1492 1491 1491 1490 1489 1487 1486 1484 1482 1481 1479 1478 1476 1474 1473 1472 1471 1470 1469 1468 1466 1466 1465 1465
1515 1517 1523 1525 1524 1521 1514 1508 1499 1487 1485 1485 1484 1484 1484 1486 1488 1488 1489 1489 1490 1490 1490 1490 1489 1489 1488 1487 1486 1485 1484 1482 1481 1479 1477 1476 1474 1472 1471 1469 1468 1467 1466 1465 1463 1462 1461 1461 1460
1516 1517 1519 1525 1525 1524 1519 1507 1488 1485 1483 1483 1483 1482 1483 1484 1485 1486 1486 1487 1487 1487 1487 1486 1486 1485 1484 1483 1482 1481 1480 1479 1477 1475 1474 1472 1470 1469 1467 1466 1464 1463 1461 1460 1459 1458 1457 1457 1456
1513 1513 1518 1522 1522 1525 1524 1507 1482 1482 1481 1481 1481 1481 1482 1483 1483 1483 1484 1484 1484 1483 1483 1483 1482 1481 1480 1479 1478 1477 1476 1475 1473 1471 1470 1468 1467 1465 1463 1462 1460 1459 1458 1456 1455 1454 1453 1452 1452